User: anonymous   Login
Location: Unspecified
(0.0000°N, 0.0000°E)
Time: 13:50:18
(UTC+00:00)
Language:

Kosmos-2239 - Orbit

View from above orbital plane
View from above orbital plane
View from above satellite
View from above satellite

Ground track
Ground track

The orbit data is extracted from the following two-line orbital elements,

1 22590U 93020A   24114.22520606  .00000141  00000-0  13087-3 0  9995
2 22590  82.9350   3.7407 0022341 327.8736 145.9877 13.75518166559133
Epoch (UTC): 23 April 2024 05:24:17
Eccentricity: 0.0022341
inclination: 82.9350°
perigee height: 963 km
apogee height: 996 km
right ascension of ascending node: 3.7407°
argument of perigee: 327.8736°
revolutions per day: 13.75518166
mean anomaly at epoch: 145.9877°
orbit number at epoch: 55913

The dashed part of the orbit path shows where the satellite is in the earth's shadow,  

DLR